| time (UTC) | temp C | wind direction | speed KPH | gust KPH | rain 1hr cm | rain 24hr cm | rain mn cm | humidity % | barometer mb |
| 20260504234325 | 27 | 337 | 0.0 | 3.2 | 0.00 | 0.00 | 0.00 | 29 | 1001.8 |
| 20260504233325 | 28 | 255 | 0.0 | 3.2 | 0.00 | 0.00 | 0.00 | 28 | 1001.7 |
| 20260504232329 | 29 | 304 | 1.6 | 4.8 | 0.00 | 0.00 | 0.00 | 30 | 1001.6 |
| 20260504231337 | 29 | 271 | 0.0 | 4.8 | 0.00 | 0.00 | 0.00 | 32 | 1001.5 |
| 20260504230335 | 28 | 259 | 1.6 | 9.7 | 0.00 | 0.00 | 0.00 | 27 | 1001.5 |
| 20260504225320 | 29 | 250 | 4.8 | 8.0 | 0.00 | 0.00 | 0.00 | 28 | 1001.5 |
| 20260504224334 | 29 | 256 | 1.6 | 6.4 | 0.00 | 0.00 | 0.00 | 27 | 1001.5 |
| 20260504223334 | 28 | 304 | 1.6 | 6.4 | 0.00 | 0.00 | 0.00 | 27 | 1001.5 |
| 20260504222321 | 28 | 301 | 1.6 | 12.9 | 0.00 | 0.00 | 0.00 | 27 | 1001.5 |
| 20260504221335 | 28 | 6 | 4.8 | 16.1 | 0.00 | 0.00 | 0.00 | 28 | 1001.5 |
| 20260504220334 | 29 | 323 | 3.2 | 11.3 | 0.00 | 0.00 | 0.00 | 27 | 1001.5 |
| 20260504215322 | 28 | 298 | 3.2 | 8.0 | 0.00 | 0.00 | 0.00 | 28 | 1001.4 |
| 20260504214335 | 28 | 274 | 6.4 | 14.5 | 0.00 | 0.00 | 0.00 | 27 | 1001.4 |
| 20260504213334 | 29 | 289 | 4.8 | 12.9 | 0.00 | 0.00 | 0.00 | 29 | 1001.4 |
| 20260504212340 | 28 | 311 | 3.2 | 16.1 | 0.00 | 0.00 | 0.00 | 30 | 1001.4 |
| 20260504212103 | 28 | 286 | 8.0 | 17.7 | 0.00 | 0.00 | 0.00 | 30 | 1001.4 |
| 20260504210325 | 28 | 274 | 16.1 | 25.7 | 0.00 | 0.00 | 0.00 | 24 | 1001.4 |
| 20260504205330 | 28 | 263 | 11.3 | 20.9 | 0.00 | 0.00 | 0.00 | 28 | 1001.5 |
| 20260504204317 | 28 | 246 | 11.3 | 20.9 | 0.00 | 0.00 | 0.00 | 27 | 1001.5 |
| 20260504203333 | 28 | 224 | 9.7 | 24.1 | 0.00 | 0.00 | 0.00 | 29 | 1001.7 |
| 20260504202320 | 28 | 245 | 6.4 | 20.9 | 0.00 | 0.00 | 0.00 | 32 | 1001.7 |
| 20260504201318 | 28 | 283 | 4.8 | 20.9 | 0.00 | 0.00 | 0.00 | 34 | 1001.7 |
| 20260504200335 | 28 | 220 | 4.8 | 12.9 | 0.00 | 0.00 | 0.00 | 32 | 1001.7 |
| 20260504195605 | 28 | 231 | 4.8 | 20.9 | 0.00 | 0.00 | 0.00 | 36 | 1001.8 |
| 20260504193335 | 28 | 11 | 3.2 | 17.7 | 0.00 | 0.00 | 0.00 | 36 | 1001.8 |
| 20260504192106 | 28 | 283 | 6.4 | 14.5 | 0.00 | 0.00 | 0.00 | 32 | 1001.9 |
| 20260504185337 | 27 | 337 | 6.4 | 19.3 | 0.00 | 0.00 | 0.00 | 39 | 1002.1 |
| 20260504184322 | 27 | 279 | 8.0 | 16.1 | 0.00 | 0.00 | 0.00 | 37 | 1002.1 |
| 20260504183320 | 27 | 284 | 4.8 | 17.7 | 0.00 | 0.00 | 0.00 | 42 | 1002.1 |
| 20260504182325 | 27 | 257 | 3.2 | 19.3 | 0.00 | 0.00 | 0.00 | 42 | 1002.2 |
| 20260504181332 | 27 | 266 | 6.4 | 14.5 | 0.00 | 0.00 | 0.00 | 43 | 1002.2 |
| 20260504180329 | 27 | 263 | 9.7 | 12.9 | 0.00 | 0.00 | 0.00 | 41 | 1002.2 |
| 20260504175335 | 27 | 245 | 4.8 | 11.3 | 0.00 | 0.00 | 0.00 | 41 | 1002.3 |
| 20260504174322 | 26 | 220 | 8.0 | 12.9 | 0.00 | 0.00 | 0.00 | 45 | 1002.3 |
| 20260504173319 | 26 | 239 | 4.8 | 12.9 | 0.00 | 0.00 | 0.00 | 45 | 1002.3 |
| 20260504172321 | 25 | 228 | 6.4 | 16.1 | 0.00 | 0.00 | 0.00 | 47 | 1002.5 |
| 20260504171328 | 25 | 255 | 6.4 | 16.1 | 0.00 | 0.00 | 0.00 | 45 | 1002.6 |
| 20260504170327 | 25 | 252 | 8.0 | 14.5 | 0.00 | 0.00 | 0.00 | 48 | 1002.8 |
| 20260504160347 | 23 | 229 | 9.7 | 16.1 | 0.00 | 0.00 | 0.00 | 51 | 1002.6 |
| 20260504150325 | 22 | 240 | 12.9 | 17.7 | 0.00 | 0.00 | 0.00 | 54 | 1002.7 |
| 20260504141324 | 20 | 201 | 9.7 | 17.7 | 0.00 | 0.00 | 0.00 | 61 | 1002.7 |
| 20260504140338 | 19 | 207 | 8.0 | 12.9 | 0.00 | 0.00 | 0.00 | 66 | 1002.8 |
| 20260504130319 | 17 | 222 | 0.0 | 1.6 | 0.00 | 0.00 | 0.00 | 78 | 1003.3 |
| 20260504110322 | 11 | 326 | 0.0 | 3.2 | 0.00 | 0.00 | 0.00 | 83 | 1002.8 |
| 20260504100341 | 10 | 42 | 3.2 | 3.2 | 0.00 | 0.00 | 0.00 | 83 | 1003.6 |
| 20260504081327 | 10 | 349 | 0.0 | 1.6 | 0.00 | 0.00 | 0.00 | 90 | 1005.5 |
| 20260504080324 | 10 | 348 | 0.0 | 0.0 | 0.00 | 0.00 | 0.00 | 89 | 1005.7 |
| 20260504070329 | 11 | 226 | 1.6 | 4.8 | 0.00 | 0.00 | 0.00 | 86 | 1007.2 |
| 20260504050402 | 11 | 291 | 0.0 | 1.6 | 0.00 | 0.00 | 0.00 | 85 | 1008.5 |
| 20260504045322 | 11 | 291 | 0.0 | 1.6 | 0.00 | 0.00 | 0.00 | 85 | 1008.6 |
| 20260504044327 | 11 | 291 | 0.0 | 0.0 | 0.00 | 0.00 | 0.00 | 83 | 1008.3 |
| 20260504043325 | 12 | 291 | 0.0 | 0.0 | 0.00 | 0.00 | 0.00 | 81 | 1008.2 |
| 20260504042353 | 12 | 291 | 0.0 | 3.2 | 0.00 | 0.00 | 0.00 | 80 | 1008.1 |
| 20260504041320 | 12 | 291 | 1.6 | 3.2 | 0.00 | 0.00 | 0.00 | 76 | 1008.2 |
| 20260504040341 | 12 | 212 | 0.0 | 3.2 | 0.00 | 0.00 | 0.00 | 82 | 1008.4 |
| 20260504035837 | 12 | 280 | 1.6 | 1.6 | 0.00 | 0.00 | 0.00 | 82 | 1008.3 |
| 20260504034325 | 12 | 280 | 0.0 | 0.0 | 0.00 | 0.00 | 0.00 | 82 | 1008.5 |
| 20260504033323 | 12 | 3 | 0.0 | 4.8 | 0.00 | 0.00 | 0.00 | 82 | 1008.6 |
| 20260504032331 | 12 | 316 | 3.2 | 4.8 | 0.00 | 0.00 | 0.00 | 81 | 1008.6 |
| 20260504031319 | 12 | 311 | 1.6 | 1.6 | 0.00 | 0.00 | 0.00 | 80 | 1008.7 |
| 20260504030318 | 13 | 310 | 1.6 | 3.2 | 0.00 | 0.00 | 0.00 | 79 | 1008.7 |
| 20260504025317 | 13 | 310 | 3.2 | 3.2 | 0.00 | 0.00 | 0.00 | 76 | 1008.8 |
| 20260504024324 | 14 | 295 | 1.6 | 3.2 | 0.00 | 0.00 | 0.00 | 74 | 1008.7 |
| 20260504023322 | 14 | 295 | 1.6 | 3.2 | 0.00 | 0.00 | 0.00 | 71 | 1008.6 |
| 20260504022348 | 14 | 294 | 1.6 | 1.6 | 0.00 | 0.00 | 0.00 | 73 | 1008.7 |
| 20260504021332 | 15 | 294 | 1.6 | 1.6 | 0.00 | 0.00 | 0.00 | 72 | 1008.6 |
| 20260504020330 | 15 | 294 | 1.6 | 1.6 | 0.00 | 0.00 | 0.00 | 66 | 1008.8 |
| 20260504015317 | 15 | 294 | 0.0 | 3.2 | 0.00 | 0.00 | 0.00 | 66 | 1008.9 |
| 20260504014324 | 15 | 293 | 1.6 | 1.6 | 0.00 | 0.00 | 0.00 | 69 | 1008.8 |
| 20260504013323 | 16 | 294 | 1.6 | 3.2 | 0.00 | 0.00 | 0.00 | 65 | 1008.9 |
| 20260504012331 | 17 | 293 | 0.0 | 0.0 | 0.00 | 0.00 | 0.00 | 57 | 1008.8 |
| 20260504011317 | 18 | 294 | 0.0 | 1.6 | 0.00 | 0.00 | 0.00 | 51 | 1008.9 |
| 20260504010317 | 19 | 293 | 0.0 | 1.6 | 0.00 | 0.00 | 0.00 | 46 | 1008.9 |
| 20260504005320 | 20 | 294 | 0.0 | 1.6 | 0.00 | 0.00 | 0.00 | 43 | 1008.9 |
| 20260504004323 | 21 | 294 | 0.0 | 0.0 | 0.00 | 0.00 | 0.00 | 41 | 1009.0 |
| 20260504003340 | 22 | 293 | 0.0 | 0.0 | 0.00 | 0.00 | 0.00 | 38 | 1009.0 |
| 20260504002321 | 23 | 294 | 0.0 | 3.2 | 0.00 | 0.00 | 0.00 | 36 | 1009.1 |
| 20260504001326 | 24 | 269 | 0.0 | 1.6 | 0.00 | 0.00 | 0.00 | 34 | 1009.2 |
| 20260504000323 | 25 | 288 | 0.0 | 3.2 | 0.00 | 0.00 | 0.00 | 34 | 1009.2 |
| 20260503235328 | 24 | 293 | 0.0 | 3.2 | 0.00 | 0.00 | 0.00 | 38 | 1009.2 |